Weather Service Report


586 
ASUS44 KSJT 310410
RWRSJT
WEST CENTRAL TEXAS REGIONAL WEATHER ROUNDUP
NATIONAL WEATHER SERVICE SAN ANGELO TX
1100 PM CDT THU OCT 30 2014

NOTE: "FAIR" INDICATES FEW OR NO CLOUDS BELOW 12,000 FEET WITH NO
SIGNIFICANT WEATHER AND/OR OBSTRUCTIONS TO VISIBILITY.

TXZ049-054-064>066-071>073-076>078-098-099-113-114-127-128-139-140-
154-155-168>170-310500
...LOCATIONS ACROSS WEST CENTRAL TEXAS...
  
CITY           SKY/WX    TMP DP  RH WIND       PRES   REMARKS
SAN ANGELO     MOCLDY    74  57  55 NE16G24   30.18R                  
ABILENE        MOCLDY    70  52  52 NE13      30.23R                  
DYESS AFB      MOCLDY    68  56  64 NE12      30.22R                  
JUNCTION       PTCLDY    71  58  63 E3        30.13R                  
SWEETWATER     PTCLDY    66  45  46 NE10      30.28R                  
BROWNWOOD      CLOUDY    68  63  83 NE5       30.18R                  
COLEMAN        MOCLDY    69  62  77 NE10      30.20R                  
SONORA         CLEAR     64  55  72 N5        30.18R                  
OZONA          FAIR      64  55  72 N9        30.19R                  
BRADY          LGT RAIN  70  61  73 N12       30.17R                  
$$

TEXAS PANHANDLE/OKLAHOMA PANHANDLE
  
CITY           SKY/WX    TMP DP  RH WIND       PRES   REMARKS
AMARILLO       CLEAR     48  31  51 E6        30.35R                  
BORGER         CLEAR     56  29  35 NE6       30.34R                  
CANADIAN       CLEAR     45  35  67 CALM      30.31R                  
DALHART        CLEAR     48  29  47 NE10      30.38R                  
DUMAS            N/A     46  28  49 N5        30.36R                  
GUYMON         NOT AVBL                                               
HEREFORD       CLEAR     44  36  73 CALM      30.36R                  
PAMPA          CLEAR     48  31  50 NE9       30.34R                  
PERRYTON       CLEAR     51  29  42 N6        30.33R                  
$$

SOUTHERN PANHANDLE/SOUTH PLAINS/ROLLING PLAINS
  
CITY           SKY/WX    TMP DP  RH WIND       PRES   REMARKS
LUBBOCK        CLEAR     51  33  50 NE9       30.30R                  
SNYDER         CLEAR     64  45  50 NE13      30.26R                  
CHILDRESS      CLEAR     62  31  31 NE7       30.29R                  
SEMINOLE       CLEAR     58  49  72 NE7       30.30R                  
$$

PERMIAN BASIN
  
CITY           SKY/WX    TMP DP  RH WIND       PRES   REMARKS
MIDLAND        CLEAR     67  56  67 NE16      30.23R                  
ODESSA         CLEAR     66  53  63 NE14      30.24R                  
WINK           CLEAR     61  45  55 N10       30.21R                  
$$

FAR WEST/SOUTHWEST MOUNTAINS/TRANS PECOS
  
CITY           SKY/WX    TMP DP  RH WIND       PRES   REMARKS
ALPINE         CLEAR     52  35  52 S3        30.34R                  
DRYDEN           N/A     69  60  73 NE7       30.13R                  
EL PASO        PTCLDY    67  33  28 N9        30.22R                  
FORT STOCKTON  CLEAR     63  38  39 N6        30.21R                  
GUADALUPE PASS CLEAR     58  42  55 NE35      30.33R                  
MARFA          CLEAR     57  34  41 N10       30.30S                  
PECOS          CLEAR     64  44  47 N8        30.22R                  
$$

DALLAS/FORT WORTH METROPLEX
  
CITY           SKY/WX    TMP DP  RH WIND       PRES   REMARKS
DFW AIRPORT    PTCLDY    64  57  78 NW12      30.15R                  
FTW MEACHAM    CLEAR     66  55  67 N8        30.16R                  
DAL-EXECUTIVE  CLEAR     63  55  75 NW7       30.14R                  
GRAND PRAIRIE  CLEAR     65  57  76 CALM      30.16R                  
ADDISON        CLEAR     65  62  87 NW5       30.17R                  
MESQUITE       CLEAR     61  59  93 CALM      30.14R                  
LANCASTER      CLEAR     62  53  71 CALM      30.15R                  
$$

NORTH CENTRAL TEXAS
  
CITY           SKY/WX    TMP DP  RH WIND       PRES   REMARKS
SHRMAN/DENISON CLEAR     58  47  67 N3        30.18R                  
GAINESVILLE    CLEAR     56  42  61 NW7       30.20R                  
BRIDGEPORT     CLEAR     62  45  53 N3        30.21R                  
DENTON         CLEAR     58  52  80 NW3       30.17R                  
WAXAHACHIE     PTCLDY    60  55  83 CALM      30.16R                  
GRANBURY       PTCLDY    65  63  93 W3        30.19R FOG              
$$

WESTERN NORTH TEXAS
  
CITY           SKY/WX    TMP DP  RH WIND       PRES   REMARKS
WICHITA FALLS  CLEAR     57  37  47 N8        30.21R                  
VERNON         CLEAR     59  36  41 N7        30.25R                  
BRECKENRIDGE   CLOUDY    69  44  40 NE10      30.21R                  
COMANCHE       CLOUDY    66  66 100 N5        30.19R                  
$$

CENTRAL AND SOUTH CENTRAL TEXAS
  
CITY           SKY/WX    TMP DP  RH WIND       PRES   REMARKS
AUSTIN/BERGSTM MOCLDY    63  58  83 CALM      30.10R                  
WACO           CLOUDY    65  56  72 N3        30.13R                  
HILLSBORO      MOCLDY    66  56  70 N6        30.15R                  
TEMPLE         MOCLDY    66  52  59 E6        30.12R                  
KILLEEN-GRAY   CLOUDY    69  57  65 E3        30.14R                  
FORT HOOD      NOT AVBL                                               
GEORGETOWN     MOCLDY    64  57  77 CALM      30.12R                  
LAGO VISTA     MOCLDY    70  58  67 E3        30.14R                  
SAN MARCOS     CLEAR     66  54  63 E5        30.12R                  
NEW BRAUNFELS  CLEAR     71  59  65 E3        30.09R                  
RANDOLPH AFB   CLEAR     69  61  76 NE3       30.10R                  
SAN ANTONIO    CLEAR     72  62  71 E3        30.10R                  
STINSON        CLEAR     71  63  75 SE5       30.08R                  
PLEASANTON     NOT AVBL                                               
LA GRANGE      CLEAR     64  58  80 CALM      30.08R                  
GIDDINGS       CLEAR     60  54  81 CALM      30.14R                  
$$

EAST TEXAS
  
CITY           SKY/WX    TMP DP  RH WIND       PRES   REMARKS
PARIS          CLEAR     59  45  58 CALM      30.13R                  
CLARKSVILLE    NOT AVBL                                               
TYLER          CLEAR     61  52  72 CALM      30.11R                  
LONGVIEW       CLEAR     54  50  86 CALM      30.10R                  
PALESTINE      PTCLDY    62  56  82 CALM      30.13R                  
NACOGDOCHES    PTCLDY    54  48  82 CALM      30.12R                  
$$

TEXAS HILL COUNTRY AND EDWARDS PLATEAU
  
CITY           SKY/WX    TMP DP  RH WIND       PRES   REMARKS
LLANO          MOCLDY    70  61  73 CALM      30.16R                  
HORSESHOE BAY  MOCLDY    69  59  70 CALM      30.13R                  
KERRVILLE      CLEAR     67  60  80 E3        30.14R                  
FREDERICKSBRG  CLEAR     66  60  81 CALM      30.14R                  
ROCKSPRINGS    CLEAR     70  57  64 CALM      30.17R                  
HONDO          MOCLDY    71  61  70 SE6       30.11R                  
UVALDE         CLEAR     73  61  65 E6        30.10R                  
DEL RIO        CLEAR     69  62  78 CALM      30.08R                  
$$

SOUTHEAST TEXAS
  
CITY           SKY/WX    TMP DP  RH WIND       PRES   REMARKS
COLLEGE STN    PTCLDY    65  52  62 NE5       30.11R                  
CALDWELL       CLEAR     61  54  77 CALM      30.14R                  
CROCKETT       PTCLDY    59  55  88 CALM      30.15R                  
BRENHAM        CLEAR     64  55  72 CALM      30.11S                  
HUNTSVILLE     CLOUDY    59  50  72 CALM      30.11R                  
CONROE         CLEAR     54  52  93 CALM      30.11R                  
HOUSTON BUSH   CLEAR     62  55  77 CALM      30.09S                  
HOUSTON HOBBY  CLEAR     64  57  78 CALM      30.09R                  
PERLAND        CLEAR     62  57  83 CALM      30.11R                  
WHARTON        CLEAR     62  59  90 CALM      30.10R                  
$$

THE UPPER TEXAS COAST
  
CITY           SKY/WX    TMP DP  RH WIND       PRES   REMARKS
ORANGE         CLEAR    N/A N/A N/A CALM      30.11S                  
PORT ARTHUR    CLEAR     57  53  86 CALM      30.08S                  
GALVESTON      CLEAR     69  58  67 NE5       30.10R                  
ANGLETON       CLEAR     58  58 100 N5        30.09R                  
BAY CITY         N/A     64  63  97 CALM      30.09R                  
$$

TEXAS COASTAL BEND, RIO GRANDE PLAINS DEEP SOUTH TEXAS
  
CITY           SKY/WX    TMP DP  RH WIND       PRES   REMARKS
VICTORIA       CLEAR     71  66  84 SE3       30.09R                  
BEEVILLE       FAIR      70  69  99 SE3       30.08S                  
ROCKPORT       CLEAR     75  69  81 SE8       30.08R                  
PORT ARANSAS   CLEAR     75  69  81 E6        30.07S                  
PORT LAVACA    CLEAR     69  66  91 SE3       30.09S                  
CORPUS CHRISTI PTCLDY    73  70  90 SE6       30.08R                  
KINGSVILLE NAS PTCLDY    71  71 100 E5        30.08R                  
COTULLA        CLEAR     76  64  66 SE10      30.08R                  
LAREDO         CLEAR     76  65  68 SE10      30.10R                  
BROWNSVILLE    CLEAR     72  69  90 E3        30.07S                  
PORT ISABEL    CLEAR     76  69  79 E7        30.06R                  
HEBBRONVILLE   CLEAR     71  65  82 E3        30.10S                  
MCALLEN        CLEAR     73  68  84 E5        30.08R                  
WESLACO        CLEAR     75  67  76 CALM      30.07R                  
FALFURRIAS     CLEAR     70  67  90 CALM      30.07R                  
EDINBURG       CLEAR     73  66  79 CALM      30.08R                  
$$

Return to Home page


Western Regional Climate Center, wrcc@dri.edu